Regional Weather Roundup
Issued by NWS

Home | Current Version | Previous Version | Text Only | Print | Product List | Glossary Off
Versions: 1 2 3 4 5 6 7 8 9 10 11 12 13 14 15 16 17 18 19 20 21 22 23 24 25 26 27 28 29 30 31 32 33 34 35 36 37 38 39 40 41 42 43 44 45 46 47 48 49 50

427
ASUS43 KLSX 161707
RWRMO

WEATHER SUMMARY FOR MISSOURI
NATIONAL WEATHER SERVICE SPRINGFIELD MO
1200 PM CDT MON OCT 16 2017

NOTE: "FAIR" INDICATES FEW OR NO CLOUDS BELOW 12,000 FEET WITH NO
       SIGNIFICANT WEATHER AND/OR OBSTRUCTIONS TO VISIBILITY.
       CURRENT SKY AND/OR WEATHER CONDITIONS ARE NOT AVAILABLE FOR
       CHILLICOTHE AND FARMINGTON.

MOZ001>031-035>038-043-044-053-054-161800-
...NORTHERN AND WESTERN MISSOURI...

CITY           SKY/WX    TMP DP  RH WIND       PRES   REMARKS
KANSAS CTY INT SUNNY     63  41  44 SW8       30.39F
KANSAS C DTWN  SUNNY     64  43  46 S5        30.38F
LEE`S SUMMIT   SUNNY     63  40  42 W7        30.40F
ST JOSEPH      SUNNY     64  43  46 SW9       30.37F
CHILLICOTHE      N/A     64  40  41 S5        30.38F
KIRKSVILLE     SUNNY     63  43  48 W9        30.37F

$$
MOZ066>068-077>081-088>096-101>105-161800-
...SOUTHWEST MISSOURI...

CITY           SKY/WX    TMP DP  RH WIND       PRES   REMARKS
SPRINGFIELD    SUNNY     63  36  36 E6        30.42F
JOPLIN         SUNNY     62  39  42 S6        30.44F
BRANSON        SUNNY     61  32  33 NE7       30.44F

$$
MOZ032>034-039>042-045>050-055>058-069>072-161800-
...CENTRAL MISSOURI...

CITY           SKY/WX    TMP DP  RH WIND       PRES   REMARKS
COLUMBIA       SUNNY     62  40  44 W6        30.40F
JEFFERSON CITY SUNNY     62  37  39 SW7       30.40F
ROLLA          SUNNY     60  36  40 CALM      30.42F
SEDALIA        SUNNY     63  41  44 SW7       30.42F
WHITEMAN AFB   SUNNY     62  40  45 SW7       30.36F
WARRENSBURG    SUNNY     61  39  44 S6        30.40F
OSAGE BEACH    SUNNY     62  38  40 CALM      30.43F

$$
MOZ051-052-059>065-161800-
...EAST CENTRAL MISSOURI...

CITY           SKY/WX    TMP DP  RH WIND       PRES   REMARKS
ST LOUIS INTL  SUNNY     62  39  42 VRB5      30.40F
SPIRIT OF STL  SUNNY     61  37  41 W8        30.40F
ST CHARLES     MOSUNNY   61  40  45 VRB3      30.39F

$$
MOZ072>076-082>087-097>100-106>115-161800-
...SOUTH CENTRAL AND SOUTHEAST MISSOURI...

CITY           SKY/WX    TMP DP  RH WIND       PRES   REMARKS
CAPE GIRARDEAU SUNNY     62  38  40 N10       30.40F
FARMINGTON     SUNNY     59  38  45 VRB7      30.42F
POPLAR BLUFF   SUNNY     63  39  41 NE7       30.40F
WEST PLAINS    SUNNY     63  35  35 VRB7      30.43S

$$



USA.gov is the U.S. government's official web portal to all federal, state and local government web resources and services.